Saint Paul, MN

6:03 AM CDT on September 30, 2016 (GMT -0500)
Saint Paul Downtown-Holman

Weather History for KSTP - December, 2011

Change the Weather History Date:

Sunday, December 25, 2011

  Actual Average Record
Temperature  
Mean Temperature 34 °F -  
Max Temperature 42 °F 23 °F 42 °F (1999)
Min Temperature 26 °F 9 °F -17 °F (2000)
Degree Days  
Heating Degree Days 31    
Moisture  
Dew Point 23 °F    
Average Humidity 63    
Maximum Humidity 85    
Minimum Humidity 47    
Precipitation  
Precipitation 0.00 in - - ()
Sea Level Pressure  
Sea Level Pressure 30.19 in    
Wind  
Wind Speed 11 mph (WNW)    
Max Wind Speed 20 mph    
Max Gust Speed 26 mph    
Visibility 10 miles    
Events      
Averages and records for this station are not official NWS values.
T = Trace of Precipitation, MM = Missing Value Source: NWS Daily Summary

Daily Weather History Graph

Daily Weather History Graph

Search for Another Location

Airport or City:

Trip Planner

Search our weather history database for the weather conditions in past years. The results will help you decide how hot, cold, wet, or windy it might be!

Date:

Astronomy

Dec. 25, 2011 Rise Set
Actual Time 7:48 AM CST 4:35 PM CST
Civil Twilight 7:15 AM CST 5:09 PM CST
Nautical Twilight 6:37 AM CST 5:46 PM CST
Astronomical Twilight 6:02 AM CST 6:22 PM CST
Moon 8:25 AM CST (12/25) 5:59 PM CST (12/25)
Length of Visible Light 9h 54m
Length of Day
8h 47m
New Moon, 1% of the Moon is Illuminated
Dec 25
New Moon
Jan 1
First Quarter
Jan 9
Full
Jan 16
Last Quarter
Jan 23
New

Hourly Weather History & Observations

Time (CST) Temp. Windchill Dew Point Humidity Pressure Visibility Wind Dir Wind Speed Gust Speed Precip Events Conditions
12:53 AM 37.0 °F 28.9 °F 21.0 °F 52% 30.01 in 10.0 mi WSW 12.7 mph - N/A   Clear
1:53 AM 37.0 °F 29.3 °F 21.0 °F 52% 30.01 in 10.0 mi West 11.5 mph - N/A   Clear
2:53 AM 36.0 °F 26.3 °F 21.9 °F 57% 30.02 in 10.0 mi WNW 16.1 mph 23.0 mph N/A   Clear
3:53 AM 37.0 °F 28.5 °F 23.0 °F 57% 30.04 in 10.0 mi West 13.8 mph - N/A   Clear
4:53 AM 36.0 °F 27.5 °F 24.1 °F 62% 30.06 in 10.0 mi WNW 12.7 mph 21.9 mph N/A   Clear
5:53 AM 35.1 °F 26.4 °F 24.1 °F 64% 30.11 in 10.0 mi WNW 12.7 mph - N/A   Clear
6:53 AM 34.0 °F 26.0 °F 24.1 °F 67% 30.14 in 10.0 mi WNW 10.4 mph - N/A   Clear
7:53 AM 33.1 °F 26.1 °F 24.1 °F 70% 30.17 in 10.0 mi West 8.1 mph - N/A   Clear
8:53 AM 35.1 °F 26.4 °F 25.0 °F 67% 30.20 in 10.0 mi West 12.7 mph - N/A   Clear
9:53 AM 37.0 °F 27.0 °F 25.0 °F 62% 30.23 in 10.0 mi WNW 18.4 mph 24.2 mph N/A   Clear
10:53 AM 39.0 °F 31.0 °F 24.1 °F 55% 30.25 in 10.0 mi NW 13.8 mph 25.3 mph N/A   Clear
11:53 AM 41.0 °F 32.5 °F 24.1 °F 51% 30.25 in 10.0 mi NW 17.3 mph 26.5 mph N/A   Clear
12:53 PM 41.0 °F 31.9 °F 23.0 °F 49% 30.26 in 10.0 mi NW 19.6 mph - N/A   Clear
1:53 PM 42.1 °F 33.9 °F 23.0 °F 47% 30.25 in 10.0 mi WNW 17.3 mph 23.0 mph N/A   Clear
2:53 PM 42.1 °F 34.2 °F 23.0 °F 47% 30.27 in 10.0 mi NW 16.1 mph 21.9 mph N/A   Clear
3:53 PM 39.9 °F 33.9 °F 23.0 °F 51% 30.28 in 10.0 mi WNW 9.2 mph - N/A   Clear
4:53 PM 37.0 °F 32.4 °F 21.9 °F 54% 30.29 in 10.0 mi West 5.8 mph - N/A   Clear
5:53 PM 32.0 °F - 21.2 °F 64% 30.26 in 10.0 mi Calm Calm - N/A   Clear
6:53 PM 30.0 °F - 24.1 °F 79% 30.30 in 10.0 mi Calm Calm - N/A   Clear
7:53 PM 28.9 °F - 23.0 °F 78% 30.27 in 10.0 mi Calm Calm - N/A   Clear
8:53 PM 28.0 °F - 24.1 °F 85% 30.26 in 10.0 mi Calm Calm - N/A   Clear
9:53 PM 26.1 °F - 21.9 °F 84% 30.24 in 10.0 mi Calm Calm - N/A   Clear
10:53 PM 26.1 °F 20.5 °F 21.0 °F 81% 30.22 in 10.0 mi SSE 4.6 mph - N/A   Clear
11:53 PM 27.0 °F 21.6 °F 23.0 °F 85% 30.19 in 10.0 mi SE 4.6 mph - N/A   Clear